Погода в Новом Чаплине

Россия / Чукотский автономный округ     64°29′55″N   172°51′32″W
темп.,
°C
ветер,
м/с
пор.,
м/с
влажн.,
%
обл.,
%
осадки,
мм/ч
давл.,
гПа
погр.,
м
28 ноября, вс
вс2800:00−25с22850 0.0 102713
03:00−25с32860 0.0 102615
06:00−26с22864 0.0 102613
09:00−26с22874 0.0 102513
12:00−26ссз22864 0.0 102512
15:00−26ссз22854 0.0 102312
18:00−26ссз22830 0.0 102311
21:00−27ссз22820 0.0 102210
29 ноября, пн
пн2900:00−26ссз22800 0.0 102110
03:00−26ссз22770 0.0 102010
06:00−26с22770 0.0 101912
09:00−27с33800 0.0 101814
12:00−26с33820 0.0 101817
15:00−27ссв33840 0.0 101716
18:00−26с33850 0.0 101721
21:00−27с33895 0.0 101719
30 ноября, вт
вт3000:00−27с33895 0.0 101720
03:00−26с33895 0.0 101623
06:00−26с43872 0.0 101626
09:00−26с33872 0.0 101618
12:00−26с33862 0.0 101517
15:00−27ссз22860 0.0 101513
18:00−27ссз22840 0.0 101513
21:00−27ссз22820 0.0 101412
1 декабря, ср
ср100:00−26ссз22800 0.0 101411
03:00−27ссз22810 0.0 101311
06:00−27ссз22810 0.0 101311
09:00−27ссз22800 0.0 101411
12:00−26сз22780 0.0 101410
15:00−27ссз22780 0.0 101410
18:00−27ссз22780 0.0 101610
21:00−27ссз22770 0.0 101711
2 декабря, чт
чт200:00−26ссз22720 0.0 101910
03:00−26сз22690 0.0 10209
06:00−25сз22670 0.0 10229
09:00−24сз22650 0.0 10249
12:00−23сз116513 0.0 10269
15:00−24с22695 0.0 102811
18:00−25с22745 0.0 103010
21:00−25ссв22735 0.0 10329